Flag for Germany Weather past 2 weeks in Bad Mergentheim, Baden-Württemberg, Germany

Now
52 °F

Cool.


Feels Like: 49 °F
Forecast: 46 / 65 °F
Wind: 8 mph from Southwest

Location: Niederstetten

Current Time: Aug 23, 2014 at 4:07:54 AM

Latest Report: Aug 23, 2014 at 3:20 AM


Visibility: N/A

Pressure: 29.98 "Hg

Humidity: 72%

Dew point: 43 °F

Location of Bad MergentheimLocation

Historic Weather in Bad Mergentheim — Graph

°F

Bad Mergentheim temperature yesterday

Maximum temperature yesterday: 64 °F (at 1:20 PM)
Minimum temperature yesterday: 48 °F (at 3:20 AM)
Average temperature yesterday: 57 °F

Past Weeks' High & Low Weather Summary

 TemperatureHumidityPressure
High81 °F (Aug 10, 2:20 PM)100% (Aug 15, 12:20 AM)30.12 "Hg (Aug 15, 12:20 AM)
Low45 °F (Aug 20, 6:20 AM)37% (Aug 22, 6:20 PM)29.68 "Hg (Aug 13, 2:55 PM)
Average60 °F73%29.95 "Hg
* Reported Aug 8 2:20 AM — Aug 23 2:20 AM, Bad Mergentheim, Weather by CustomWeather, © 2014

Note: Actual official high and low records may vary slightly from our data, if they occured in-between our weather recording intervals... More about our weather records

Advertising

Bad Mergentheim weather history for previous 24 hours

 ConditionsComfort  
Time TempWeatherWind HumidityBarometerVisibility
2:20 AM
Aug 23
52 °FCool.6 mph72%29.98 "HgN/A
1:20 AM52 °FCool.5 mph72%29.98 "HgN/A
12:20 AM54 °FCool.5 mph67%29.98 "HgN/A
11:20 PM
Aug 22
54 °FCool.6 mph67%29.98 "HgN/A
10:20 PM54 °FCool.5 mph72%29.98 "HgN/A
9:20 PM57 °FRefreshingly cool.3 mph59%29.98 "HgN/A
8:20 PM59 °FRefreshingly cool.3 mph51%29.98 "HgN/A
7:20 PM63 °FScattered clouds.7 mph42%29.98 "HgN/A
6:20 PM64 °FPassing clouds.12 mph37%29.98 "HgN/A
5:20 PM64 °FScattered clouds.9 mph49%29.98 "HgN/A
4:20 PM63 °FPartly sunny.12 mph49%29.98 "HgN/A
3:20 PM64 °FBroken clouds.13 mph43%29.98 "HgN/A
2:20 PM64 °FBroken clouds.9 mph40%30.01 "HgN/A
1:20 PM64 °FPartly sunny.7 mph43%30.01 "HgN/A
12:20 PM63 °FPartly sunny.8 mph42%30.01 "HgN/A
11:20 AM63 °FBroken clouds.8 mph49%30.01 "HgN/A
10:20 AM59 °FScattered clouds.3 mph59%30.01 "HgN/A
9:20 AM55 °FScattered clouds.3 mph67%30.01 "HgN/A
8:20 AM52 °FBroken clouds.1 mph77%30.01 "HgN/A
7:20 AM50 °FBroken clouds.1 mph82%30.01 "HgN/A
6:20 AM48 °FPassing clouds.2 mph82%30.01 "HgN/A
5:20 AM48 °FPassing clouds.1 mph82%30.01 "HgN/A
4:20 AM50 °FPassing clouds.3 mph76%30.01 "HgN/A
Weather by CustomWeather, © 2014

See weather overviewHow to use our weather pages